Location: ??
(35.5052°N, 139.7262°E)
Time: 02:23:55
(UTC+00:00)

Cosmos 2237 Rocket - Pass Details

Date: 20 June 2021
Orbit: 835 x 850 km, 71.0° (Epoch: 26 July)

Event Time Altitude Azimuth Distance (km) Brightness Sun altitude
Exits shadow 13:54:42 35° 271° (W) 1,315 3.2 -30.0°
Maximum altitude 13:55:48 39° 297° (WNW) 1,239 3.2 -30.0°
Drops below altitude 10° 14:01:02 10° 5° (N) 2,451 5.4 -30.2°
Sets 14:03:39 0° 14° (NNE) 3,389 6.3 -30.3°
